User: anonymous   Login
Location: Unspecified
(0.0000°N, 0.0000°E)
Time: 16:28:26
(UTC+00:00)
Language:

UWE-2 - Orbit

View from above orbital plane
View from above orbital plane
View from above satellite
View from above satellite

Ground track
Ground track

The orbit data is extracted from the following two-line orbital elements,

1 35934U 09051D   18344.98538367  .00000072  00000-0  27493-4 0  9996
2 35934  98.5628 138.7111 0007341  51.4248 308.7605 14.55814689489196
Epoch (UTC): 10 December 2018 23:38:57
Eccentricity: 0.0007341
inclination: 98.5628°
perigee height: 701 km
apogee height: 712 km
right ascension of ascending node: 138.7111°
argument of perigee: 51.4248°
revolutions per day: 14.55814689
mean anomaly at epoch: 308.7605°
orbit number at epoch: 48919

The dashed part of the orbit path shows where the satellite is in the earth's shadow,  

DLR